Location: Avully
(45.9633°N, 6.0228°E)
Time: 14:41:06
(UTC+00:00)

Resurs 1-4 Rocket - Pass Details

Date: 23 May 2024
Orbit: 798 x 813 km, 98.7° (Epoch: 16 June)

Event Time Altitude Azimuth Distance (km) Brightness Sun altitude
Rises 02:06:03 0° 10° (N) 3,317 6.5 -14.9°
Reaches altitude 10° 02:08:26 10° 6° (N) 2,382 5.5 -14.6°
Maximum altitude 02:13:33 56° 290° (WNW) 948 2.3 -14.1°
Enters shadow 02:17:04 20° 218° (SW) 1,774 3.2 -13.7°
